EW7633 Weather Reports


time (UTC)temp
F
wind
direction
speed
knots
gust
knots
rain 1hr
in
rain 24hr
in
rain mn
in
humidity
%
barometer
mb
20260507083050 45 248 5.2 10.4 0.00 0.00 0.00 74 1016.2
20260507081544 46 239 4.3 10.4 0.00 0.00 0.00 73 1016.3
20260507080049 46 193 4.3 11.3 0.00 0.00 0.00 73 1016.6
20260507074539 46 231 4.3 12.2 0.00 0.00 0.00 73 1016.8
20260507073047 46 265 4.3 11.3 0.00 0.00 0.00 72 1017.0
20260507071532 46 258 4.3 10.4 0.00 0.00 0.00 71 1017.2
20260507070034 47 210 5.2 9.6 0.00 0.00 0.00 70 1017.3
20260507064526 47 248 5.2 10.4 0.00 0.00 0.00 69 1017.5
20260507063026 47 255 4.3 9.6 0.00 0.00 0.00 68 1017.6
20260507061522 47 265 5.2 9.6 0.00 0.00 0.00 66 1017.8
20260507060022 47 252 5.2 9.6 0.00 0.00 0.00 64 1017.9
20260507054517 48 271 4.3 12.2 0.00 0.00 0.00 60 1018.0
20260507053014 48 229 5.2 11.3 0.00 0.00 0.00 59 1018.0
20260507051511 49 252 4.3 8.7 0.00 0.00 0.00 58 1018.0
20260507050024 49 261 4.3 10.4 0.00 0.00 0.00 57 1017.9
20260507044506 49 252 3.5 8.7 0.00 0.00 0.00 56 1018.1
20260507043005 49 232 5.2 8.7 0.00 0.00 0.00 54 1018.3
20260507041504 49 259 4.3 9.6 0.00 0.00 0.00 51 1018.4
20260507040003 48 259 3.5 7.0 0.00 0.00 0.00 49 1018.4
20260507034506 49 262 2.6 7.0 0.00 0.00 0.00 45 1018.5
20260507033002 49 250 0.9 4.3 0.00 0.00 0.00 43 1018.6
20260507031501 49 245 0.9 2.6 0.00 0.00 0.00 43 1018.7
20260507030105 49 242 0.0 1.7 0.00 0.00 0.00 43 1018.6
20260507024600 50 238 0.0 1.7 0.00 0.00 0.00 41 1018.5
20260507021631 51 267 0.0 1.7 0.00 0.00 0.00 38 1018.3
20260507021528 51 266 0.0 1.7 0.00 0.00 0.00 38 1018.3
20260507020111 53 263 0.0 1.7 0.00 0.00 0.00 36 1018.2
20260507014621 54 266 0.9 1.7 0.00 0.00 0.00 34 1018.2
20260507013101 55 267 0.0 2.6 0.00 0.00 0.00 33 1018.1
20260507011601 56 268 0.9 3.5 0.00 0.00 0.00 32 1018.2
20260507010155 57 267 1.7 6.1 0.00 0.00 0.00 30 1018.2
20260507004554 58 256 1.7 6.1 0.00 0.00 0.00 29 1018.3
20260507003053 59 247 1.7 3.5 0.00 0.00 0.00 28 1018.3
20260507001602 58 274 2.6 7.8 0.00 0.00 0.00 30 1018.4
20260507000116 59 294 2.6 9.6 0.00 0.00 0.00 30 1018.6
20260506234610 61 282 7.8 13.0 0.00 0.00 0.00 27 1018.5
20260506234504 61 245 5.2 13.0 0.00 0.00 0.00 27 1018.5
20260506233051 60 329 2.6 5.2 0.00 0.00 0.00 29 1018.6
20260506233002 60 268 2.6 5.2 0.00 0.00 0.00 30 1018.6
20260506231549 59 223 4.3 9.6 0.00 0.00 0.00 28 1018.8
20260506230059 59 311 4.3 8.7 0.00 0.00 0.00 30 1019.0
20260506224550 59 334 3.5 7.0 0.00 0.00 0.00 30 1019.0
20260506223158 58 272 3.5 10.4 0.00 0.00 0.00 29 1019.1
20260506221603 59 310 5.2 12.2 0.00 0.00 0.00 27 1019.2
20260506220047 60 289 7.8 13.9 0.00 0.00 0.00 27 1019.3
20260506214600 60 240 5.2 13.0 0.00 0.00 0.00 27 1019.4
20260506213045 59 316 3.5 7.8 0.00 0.00 0.00 28 1019.5
20260506211544 57 281 4.3 13.9 0.00 0.00 0.00 29 1019.8
20260506210044 57 270 0.9 9.6 0.00 0.00 0.00 30 1020.0
20260506204548 57 304 3.5 12.2 0.00 0.00 0.00 29 1020.1
20260506203036 57 349 2.6 9.6 0.00 0.00 0.00 30 1020.4
20260506201549 57 268 7.0 11.3 0.00 0.00 0.00 30 1020.5
20260506200036 57 327 6.1 8.7 0.00 0.00 0.00 29 1020.7
20260506194533 57 268 7.0 11.3 0.00 0.00 0.00 29 1020.9
20260506193051 57 323 4.3 9.6 0.00 0.00 0.00 30 1020.8
20260506191533 57 259 3.5 11.3 0.00 0.00 0.00 32 1021.0
20260506190032 56 304 4.3 10.4 0.00 0.00 0.00 33 1021.1
20260506184536 55 328 4.3 14.8 0.00 0.00 0.00 32 1021.3
20260506183032 55 311 4.3 9.6 0.00 0.00 0.00 32 1021.2
20260506181540 56 307 1.7 14.8 0.00 0.00 0.00 32 1021.3
20260506180029 58 284 3.5 9.6 0.00 0.00 0.00 32 1021.6
20260506174534 56 320 3.5 12.2 0.00 0.00 0.00 30 1021.8
20260506173047 55 327 2.6 11.3 0.00 0.00 0.00 31 1021.7
20260506171528 55 294 6.1 11.3 0.00 0.00 0.00 32 1022.0
20260506170020 54 291 2.6 13.9 0.00 0.00 0.00 33 1022.1
20260506164519 54 306 6.1 11.3 0.00 0.00 0.00 31 1022.2
20260506163032 53 304 2.6 8.7 0.00 0.00 0.00 32 1022.3
20260506161514 52 256 2.6 8.7 0.00 0.00 0.00 34 1022.5
20260506160013 52 228 4.3 8.7 0.00 0.00 0.00 33 1022.4
20260506154510 52 289 3.5 7.0 0.00 0.00 0.00 35 1022.3
20260506153009 51 274 0.9 7.8 0.00 0.00 0.00 36 1022.4
20260506151509 51 306 0.9 7.0 0.00 0.00 0.00 38 1022.3
20260506150013 50 341 0.9 4.3 0.00 0.00 0.00 40 1022.4
20260506144528 50 281 0.9 5.2 0.00 0.00 0.00 39 1022.3
20260506143002 49 306 0.0 3.5 0.00 0.00 0.00 39 1022.5
20260506141602 48 360 0.0 5.2 0.00 0.00 0.00 42 1022.3
20260506140058 48 252 0.9 3.5 0.00 0.00 0.00 43 1022.3
20260506134555 48 292 0.0 2.6 0.00 0.00 0.00 43 1022.1
20260506133107 47 30 0.9 2.6 0.00 0.00 0.00 44 1021.9
20260506131553 46 321 0.0 2.6 0.00 0.00 0.00 49 1021.9
20260506130101 44 286 0.0 2.6 0.00 0.00 0.00 55 1021.7
20260506124550 42 319 0.0 1.7 0.00 0.00 0.00 59 1021.7
20260506121546 39 311 0.0 1.7 0.00 0.00 0.00 63 1021.1
20260506120044 39 314 0.0 0.0 0.00 0.00 0.00 65 1020.9
20260506114547 38 314 0.0 1.7 0.00 0.00 0.00 68 1020.7
20260506113041 38 314 0.0 1.7 0.00 0.00 0.00 64 1020.5
20260506111539 38 313 0.0 0.0 0.00 0.00 0.00 64 1020.4
20260506110048 39 313 0.0 0.0 0.00 0.00 0.00 61 1020.3
20260506104556 39 313 0.0 0.0 0.00 0.00 0.00 60 1020.1
20260506103038 40 313 0.0 0.0 0.00 0.00 0.00 60 1020.1
20260506101529 41 313 0.0 0.0 0.00 0.00 0.00 58 1020.2
20260506100027 41 313 0.0 0.0 0.00 0.00 0.00 59 1020.1
20260506094531 42 313 0.0 0.0 0.00 0.00 0.00 55 1020.0
20260506093122 42 314 0.0 1.7 0.00 0.00 0.00 53 1019.9
20260506091519 42 346 0.0 1.7 0.00 0.00 0.00 52 1019.6
20260506090016 42 343 0.0 2.6 0.00 0.00 0.00 52 1019.4
20260506084514 43 9 0.9 2.6 0.00 0.00 0.00 52 1019.3